User: anonymous   Login
Location: Bandys
(35.4750°N, 81.0830°W)
Time: 23:05:47
(UTC-04:00)
Language:

DELTA 2 R/B (1) - Orbit

View from above orbital plane
View from above orbital plane
View from above satellite
View from above satellite

Ground track
Ground track

The orbit data is extracted from the following two-line orbital elements,

1 27665U 03005C   14304.48180705  .00000258  00000-0  13601-3 0  1541
2 27665 039.5759 316.3745 0009178 155.7636 000.4233 14.28239016613674
Epoch (UTC): 31 October 2014 11:33:48
Eccentricity: 0.0009178
inclination: 39.5759°
perigee height: 791 km
apogee height: 804 km
right ascension of ascending node: 316.3745°
argument of perigee: 155.7636°
revolutions per day: 14.28239016
mean anomaly at epoch: 0.4233°
orbit number at epoch: 61367

The dashed part of the orbit path shows where the satellite is in the earth's shadow,  

DLR